Other Public Products
Issued by NWS Charleston, SC

Current Version | Previous Version | Graphics & Text | Print | Product List | Glossary On
Versions: 1 2 3 4 5 6 7 8 9 10 11 12 13 14 15 16 17 18 19 20 21 22 23 24 25 26 27 28 29 30 31 32 33 34 35 36 37 38 39 40 41 42 43 44 45 46 47 48 49 50
000
FPUS82 KCHS 251012
OPUCHS

TEST...KCHS/KSAV Gateway Observations...TEST
National Weather Service Charleston SC
600 AM EDT WED APR 25 2018

NOTE: "fair" indicates few or no clouds below 12,000 feet with no
significant weather and/or obstructions to visibility.

SCZ050-WAZ558-NCZ071-TXZ119-213-PAZ071-DCZ001-FLZ074-172-MI076-
NYZ176-178-MAZ016-IL014-TNZ027-NJZ106-GAZ044-MD014-251100-

...Gateway Observations for Charleston International...

CITY           SKY/WX    TMP DP  RH WIND       PRES   REMARKS
Chas Airport   FAIR      61  56  83 SW8       29.81R
Seattle        PTCLDY    54  37  52 N10       30.07S
Charlotte      FAIR      57  56  96 CALM      29.77R
Dallas DFW     CLOUDY    67  56  67 SW5       30.04S
Dallas Love    CLOUDY    67  56  67 S5        30.05R
Philladelphia  LGT RAIN  55  54  96 E10       29.87F FOG
Wash National  DRIZZLE   57  54  89 NE6       29.80F FOG
Baltimore      DRIZZLE   56  56 100 NE8       29.80F FOG
Miami          MOCLDY    69  63  81 NW12      29.96R
Detroit        LGT RAIN  51  48  89 N6        29.90F FOG
Newark         LGT RAIN  55  54  96 E8        29.95F FOG
Laguardia      LGT RAIN  54  52  93 E14       29.97F FOG
J F K          LGT RAIN  53  53 100 E18       29.97F FOG
Boston Logan   CLOUDY    47  43  86 E6        30.14S
Ft. Lauderdale MOCLDY    70  62  76 NW9       29.95R
Chicago O`Hare CLOUDY    44  30  57 N18       30.05S
Chicago Midway CLOUDY    45  32  60 N18       30.05R
Houston Bush   FAIR      63  61  93 CALM      30.05S
Houston Hobby  FAIR      64  63  96 CALM      30.04S
Nashville      CLOUDY    57  53  86 NW6       29.96R
Atlanta        FAIR      55  54  96 W8        29.88S

$$

GAZ044-118-TXZ119-213-NCZ071-DCZ001-MDZ014-506-PAZ021-071-NJZ106-
NYZ176-178-MAZ106-OHZ011-021-055-MIZ076-KYZ091-ILZ014-INZ047-
MNZ060-ONZ431-251100-

...Gateway Observations for Savannah International...

CITY           SKY/WX    TMP DP  RH WIND       PRES   REMARKS
Savannah Arpt  FAIR      59  55  87 SW8       29.85R
Atlanta        FAIR      55  54  96 W8        29.88S
Charlotte      FAIR      57  56  96 CALM      29.77R
Dallas DFW     CLOUDY    67  56  67 SW5       30.04S
Houston Bush   FAIR      63  61  93 CALM      30.05S
Wash National  DRIZZLE   57  54  89 NE6       29.80F FOG
Wash Dulles    DRIZZLE   54  54 100 N6        29.81F FOG
Baltimore      DRIZZLE   56  56 100 NE8       29.80F FOG
Philadelphia   LGT RAIN  55  54  96 E10       29.87F FOG
Newark         LGT RAIN  55  54  96 E8        29.95F FOG
Laguardia      LGT RAIN  54  52  93 E14       29.97F FOG
J F K          LGT RAIN  53  53 100 E18       29.97F FOG
Boston         CLOUDY    47  43  86 E6        30.14S
Pittsburg      CLOUDY    50  49  96 CALM      29.84S
Akron          LGT RAIN  51  48  89 NE3       29.85F FOG
Cleveland      LGT RAIN  51  50  96 N3        29.88F VSB 1
Cincinnati     CLOUDY    53  51  93 VRB7      29.88S
Columbus       CLOUDY    52  52 100 CALM      29.84S FOG
Detroit        LGT RAIN  51  48  89 N6        29.90F FOG
Chicago O`Hare CLOUDY    44  30  57 N18       30.05S
Minneapolis    FAIR      37  26  64 N7        30.25F WCI  32
Indianapolis   MOCLDY    49  48  97 N8        29.94R FOG
Toronto Canada LGT RAIN  48  46  93 E8        29.91F FOG

$$




USA.gov is the U.S. government's official web portal to all federal, state and local government web resources and services.